• In Netherlands
  • List of Countries
  • For 7 days
  • Water Temperature
  • Satellite Maps
  • Weather Map
  • Weather Widgets
  • user-avatar
    Login

    Hourly Weather Rangpur

    Today, 21 February, Tuesday

    Time Temperature Precipitation Wind Pressure Humidity
    00:00 +24°C° 0 mm 2 mps 752 mmHg 63%
    01:00 +23°C° 0 mm 2 mps 751 mmHg 64%
    02:00 +23°C° 0 mm 2 mps 751 mmHg 66%
    03:00 +23°C° 0 mm 2 mps 751 mmHg 68%
    04:00 +21°C° 0 mm 2 mps 752 mmHg 72%
    05:00 +21°C° 0 mm 2 mps 752 mmHg 75%
    06:00 +21°C° 0 mm 2 mps 751 mmHg 74%
    07:00 +22°C° 0 mm 3 mps 752 mmHg 68%
    08:00 +25°C° 0 mm 3 mps 753 mmHg 62%
    09:00 +27°C° 0 mm 3 mps 754 mmHg 56%
    10:00 +29°C° 0 mm 3 mps 753 mmHg 48%
    11:00 +31°C° 0 mm 3 mps 753 mmHg 40%
    12:00 +35°C° 0 mm 2 mps 753 mmHg 30%
    13:00 +35°C° 0 mm 2 mps 753 mmHg 28%
    14:00 +36°C° 0 mm 3 mps 752 mmHg 26%
    15:00 +36°C° 0 mm 3 mps 752 mmHg 24%
    16:00 +34°C° 0 mm 2 mps 751 mmHg 28%
    17:00 +32°C° 0 mm 2 mps 751 mmHg 32%
    18:00 +30°C° 0 mm 2 mps 751 mmHg 36%
    19:00 +29°C° 0 mm 2 mps 751 mmHg 37%
    20:00 +28°C° 0 mm 2 mps 752 mmHg 39%
    21:00 +27°C° 0 mm 2 mps 752 mmHg 40%
    22:00 +26°C° 0.1 mm 2 mps 753 mmHg 45%
    23:00 +25°C° 0.1 mm 2 mps 753 mmHg 50%

    Tomorrow, 22 February, Wednesday

    Time Temperature Precipitation Wind Pressure Humidity
    00:00 +25°C° 0.1 mm 2 mps 753 mmHg 55%
    01:00 +24°C° 0 mm 3 mps 753 mmHg 60%
    02:00 +24°C° 0 mm 3 mps 753 mmHg 64%
    03:00 +22°C° 0 mm 3 mps 753 mmHg 69%
    04:00 +22°C° 0 mm 3 mps 753 mmHg 75%
    05:00 +22°C° 0 mm 3 mps 753 mmHg 81%
    06:00 +21°C° 0 mm 3 mps 753 mmHg 86%
    07:00 +22°C° 0 mm 3 mps 754 mmHg 83%
    08:00 +24°C° 0 mm 3 mps 754 mmHg 80%
    09:00 +25°C° 0 mm 4 mps 755 mmHg 77%
    10:00 +26°C° 0 mm 3 mps 755 mmHg 73%
    11:00 +27°C° 0 mm 3 mps 755 mmHg 70%
    12:00 +28°C° 0 mm 3 mps 755 mmHg 67%
    13:00 +29°C° 0.1 mm 3 mps 754 mmHg 62%
    14:00 +30°C° 0.1 mm 3 mps 754 mmHg 57%
    15:00 +31°C° 0.1 mm 3 mps 753 mmHg 52%
    16:00 +29°C° 0.5 mm 3 mps 753 mmHg 58%
    17:00 +28°C° 0.5 mm 3 mps 753 mmHg 63%
    18:00 +27°C° 0.5 mm 3 mps 753 mmHg 69%
    19:00 +26°C° 0.2 mm 2 mps 753 mmHg 74%
    20:00 +25°C° 0.2 mm 2 mps 753 mmHg 79%
    21:00 +24°C° 0.2 mm 2 mps 754 mmHg 84%
    22:00 +23°C° 0 mm 2 mps 754 mmHg 86%
    23:00 +23°C° 0 mm 2 mps 754 mmHg 87%

    Day after tomorrow, 23 February, Thursday

    Time Temperature Precipitation Wind Pressure Humidity
    00:00 +21°C° 0 mm 2 mps 754 mmHg 89%
    01:00 +21°C° 0 mm 2 mps 754 mmHg 91%
    02:00 +21°C° 0 mm 2 mps 754 mmHg 94%
    03:00 +20°C° 0 mm 2 mps 754 mmHg 97%
    04:00 +20°C° 0 mm 2 mps 754 mmHg 97%
    05:00 +20°C° 0 mm 2 mps 754 mmHg 97%
    06:00 +21°C° 0 mm 1 mps 754 mmHg 97%
    07:00 +21°C° 0 mm 2 mps 755 mmHg 91%
    08:00 +23°C° 0 mm 2 mps 756 mmHg 85%
    09:00 +24°C° 0 mm 2 mps 756 mmHg 80%
    10:00 +26°C° 0 mm 2 mps 756 mmHg 72%
    11:00 +27°C° 0 mm 2 mps 756 mmHg 64%
    12:00 +29°C° 0 mm 2 mps 756 mmHg 55%
    13:00 +31°C° 0 mm 2 mps 755 mmHg 44%
    14:00 +33°C° 0 mm 3 mps 754 mmHg 33%
    15:00 +35°C° 0 mm 4 mps 754 mmHg 21%
    16:00 +33°C° 0 mm 3 mps 754 mmHg 22%
    17:00 +30°C° 0 mm 3 mps 754 mmHg 23%
    18:00 +28°C° 0 mm 2 mps 754 mmHg 25%
    19:00 +27°C° 0 mm 2 mps 754 mmHg 26%
    20:00 +25°C° 0 mm 2 mps 755 mmHg 28%
    21:00 +24°C° 0 mm 2 mps 755 mmHg 30%
    22:00 +23°C° 0 mm 2 mps 755 mmHg 35%
    23:00 +22°C° 0 mm 1 mps 755 mmHg 41%

    24 February, Friday

    Time Temperature Precipitation Wind Pressure Humidity
    00:00 +21°C° 0 mm 1 mps 755 mmHg 46%
    01:00 +20°C° 0 mm 1 mps 755 mmHg 48%
    02:00 +20°C° 0 mm 1 mps 755 mmHg 51%
    03:00 +19°C° 0 mm 1 mps 754 mmHg 53%
    04:00 +19°C° 0 mm 1 mps 755 mmHg 53%
    05:00 +19°C° 0 mm 1 mps 755 mmHg 53%
    06:00 +18°C° 0 mm 1 mps 755 mmHg 54%
    07:00 +21°C° 0 mm 1 mps 756 mmHg 47%
    08:00 +23°C° 0 mm 1 mps 757 mmHg 41%
    09:00 +25°C° 0 mm 2 mps 757 mmHg 35%
    10:00 +27°C° 0 mm 2 mps 757 mmHg 29%
    11:00 +29°C° 0 mm 2 mps 757 mmHg 24%
    12:00 +31°C° 0 mm 2 mps 757 mmHg 18%
    13:00 +33°C° 0 mm 3 mps 756 mmHg 16%
    14:00 +33°C° 0 mm 3 mps 755 mmHg 14%
    15:00 +34°C° 0 mm 3 mps 755 mmHg 12%
    16:00 +31°C° 0 mm 3 mps 755 mmHg 14%
    17:00 +29°C° 0 mm 3 mps 755 mmHg 17%
    18:00 +27°C° 0 mm 2 mps 755 mmHg 19%
    19:00 +25°C° 0 mm 2 mps 755 mmHg 20%
    20:00 +24°C° 0 mm 2 mps 756 mmHg 21%
    21:00 +23°C° 0 mm 2 mps 757 mmHg 22%
    22:00 +21°C° 0 mm 2 mps 757 mmHg 24%
    23:00 +20°C° 0 mm 2 mps 756 mmHg 26%

    25 February, Saturday

    Time Temperature Precipitation Wind Pressure Humidity
    00:00 +20°C° 0 mm 1 mps 756 mmHg 28%
    01:00 +19°C° 0 mm 1 mps 756 mmHg 30%
    02:00 +19°C° 0 mm 1 mps 756 mmHg 33%
    03:00 +18°C° 0 mm 1 mps 755 mmHg 36%
    04:00 +18°C° 0 mm 1 mps 755 mmHg 39%
    05:00 +16°C° 0 mm 1 mps 756 mmHg 41%
    06:00 +16°C° 0 mm 1 mps 756 mmHg 44%
    07:00 +19°C° 0 mm 1 mps 757 mmHg 41%
    08:00 +21°C° 0 mm 2 mps 758 mmHg 38%
    09:00 +24°C° 0 mm 2 mps 758 mmHg 36%
    10:00 +26°C° 0 mm 2 mps 758 mmHg 30%
    11:00 +28°C° 0 mm 1 mps 758 mmHg 25%
    12:00 +30°C° 0 mm 1 mps 757 mmHg 19%
    13:00 +31°C° 0 mm 1 mps 757 mmHg 17%
    14:00 +32°C° 0 mm 1 mps 756 mmHg 15%
    15:00 +32°C° 0 mm 1 mps 755 mmHg 13%
    16:00 +30°C° 0 mm 1 mps 755 mmHg 16%
    17:00 +27°C° 0 mm 1 mps 755 mmHg 19%
    18:00 +25°C° 0 mm 1 mps 755 mmHg 22%
    19:00 +24°C° 0 mm 1 mps 755 mmHg 23%
    20:00 +23°C° 0 mm 1 mps 756 mmHg 24%
    21:00 +22°C° 0 mm 1 mps 756 mmHg 25%
    22:00 +22°C° 0 mm 1 mps 756 mmHg 27%
    23:00 +21°C° 0 mm 1 mps 756 mmHg 29%

    26 February, Sunday

    Time Temperature Precipitation Wind Pressure Humidity
    00:00 +20°C° 0 mm 2 mps 756 mmHg 31%
    01:00 +19°C° 0 mm 2 mps 756 mmHg 35%
    02:00 +19°C° 0 mm 2 mps 755 mmHg 40%
    03:00 +18°C° 0 mm 2 mps 755 mmHg 44%
    04:00 +18°C° 0 mm 2 mps 755 mmHg 46%
    05:00 +17°C° 0 mm 2 mps 755 mmHg 47%
    06:00 +17°C° 0 mm 2 mps 755 mmHg 49%
    07:00 +19°C° 0 mm 2 mps 756 mmHg 44%
    08:00 +21°C° 0 mm 2 mps 757 mmHg 38%
    09:00 +24°C° 0 mm 2 mps 758 mmHg 32%
    10:00 +27°C° 0 mm 2 mps 757 mmHg 27%
    11:00 +29°C° 0 mm 2 mps 757 mmHg 22%
    12:00 +31°C° 0 mm 1 mps 757 mmHg 17%
    13:00 +32°C° 0 mm 1 mps 756 mmHg 15%
    14:00 +32°C° 0 mm 1 mps 755 mmHg 13%
    15:00 +33°C° 0 mm 1 mps 754 mmHg 12%
    16:00 +30°C° 0 mm 1 mps 754 mmHg 15%
    17:00 +28°C° 0 mm 1 mps 754 mmHg 19%
    18:00 +25°C° 0 mm 1 mps 754 mmHg 22%
    19:00 +25°C° 0 mm 1 mps 755 mmHg 23%
    20:00 +24°C° 0 mm 1 mps 755 mmHg 24%
    21:00 +23°C° 0 mm 1 mps 755 mmHg 25%
    22:00 +22°C° 0 mm 1 mps 755 mmHg 27%
    23:00 +22°C° 0 mm 1 mps 755 mmHg 29%
    Show more